SENTINEL-1A (39634 NORAD) Tracking and Keplerian Element Data

This shows tracking and keplerian element data for the satellite.

Feedback or suggestion? Click here.




ElementValue
Catalog39634
NameSENTINEL-1A
Epoch Orbit39862
Epoch Day270.13907391
Epoch Year2021
RAAN276.4696
Inclination98.1816
Eccentricity0.0001357
Argument of Perigee78.1454
Mean Anonmoly281.9901
Mean Motion14.59198118
Decay Rate-3.4E-07
L11 39634U 14016A 21270.13907391 -.00000034 00000-0 26049-5 0 9996
L22 39634 98.1816 276.4696 0001357 78.1454 281.9901 14.59198118398620

Live tracking and technical data element details for SENTINEL-1A (NORAD 39634). SENTINEL-1A can be tracked NOW for your location showing map with azimuth and elevation plus other details from your city location.

Track the satellite on the map from your city or location and see movement details for azimuth, elevation, latitude, longitude, range, height, and movement on the map or in text.







IsCatalogInMostPopularTable: catalog: 39634, numindb: 595
Update: records affected: 1



GetName: 39634 SENTINEL-1A

Hit Count: updated at: Tue, 28 Sep 2021 16:03:28 GMT